Hourly Data Report for October 01, 2017

All times are specified in Local Standard Time (LST). Add 1 hour to adjust for Daylight Saving Time where and when it is observed.

DELINE CS
NORTHWEST TERRITORIES

65°12'31.090" N
123°26'00.070" W
212.80 m
2201022
71503
XDE

Download Data

Hourly Data (October 2017)
Hourly Data Report for October 1, 2017
Temp Definition
°C
Dew Point Temp Definition
°C
Rel Hum Definition
%
Wind Dir Definition
10's deg

Wind Spd Definition
km/h
Visibility Definition
km
Stn Press Definition
kPa
Hmdx Definition


Wind Chill Definition


Weather Definition


TIME
00:00 -0.8 -3.6 81 30 15   99.35   -5 LegendNANA
01:00 -1.7 -4.0 84 30 17   99.38   -7 LegendNANA
02:00 -2.4 -4.6 85 29 15   99.40   -7 LegendNANA
03:00 -2.6 -4.9 84 30 16   99.41   -8 LegendNANA
04:00 -3.0 -5.2 85 30 12   99.46   -7 LegendNANA
05:00 -3.9 -5.6 88 31 11   99.53   -8 LegendNANA
06:00 -4.2 -6.1 87 31 9   99.58   -8 LegendNANA
07:00 -5.3 -6.4 92 32 8   99.63   -9 LegendNANA
08:00 -5.1 -6.4 90 33 8   99.68   -9 LegendNANA
09:00 -3.4 -5.4 87 34 2   99.71   -4 LegendNANA
10:00 -1.9 -4.3 84 0 1   99.74   -2 LegendNANA
11:00 1.2 -3.4 71 21 5   99.77     LegendNANA
12:00 2.8 -2.2 70 25 9   99.77     LegendNANA
13:00 3.6 -2.0 67 25 12   99.79     LegendNANA
14:00 4.3 -1.5 66 25 14   99.81     LegendNANA
15:00 4.8 -1.4 64 27 18   99.85     LegendNANA
16:00 5.5 -1.3 61 26 18   99.87     LegendNANA
17:00 5.5 -0.9 63 26 13   99.90     LegendNANA
18:00 5.2 -0.7 66 27 12   99.95     LegendNANA
19:00 4.4 -0.7 69 24 10   99.98     LegendNANA
20:00 3.0 -1.1 75 25 13   100.02     LegendNANA
21:00 2.8 -1.1 75 25 15   100.05     LegendNANA
22:00 3.0 -0.9 75 26 11   100.05     LegendNANA
23:00 2.4 -1.2 77 27 11   100.06     LegendNANA

Notes on Data Quality.

Legend

  • E = Estimated
  • M = Missing
  • NA = Not Available
  • ‡ = Partner data that is not subject to review by the National Climate Archives
Date modified: